This is the latest recevied weather packets stored in our database for station/object AB0TJ. If no packets are shown the sender has not sent any weather packets the latest 10 day(s).
| Time | Temp. | Humidity | Pressure | Rain* | Wind** | Luminosity | Snow |
|---|---|---|---|---|---|---|---|
| 1777832239 | 23.89° C | 19% | 1016.3 hPa | 0 mm | - | 804 W/m² | - |
| 1777831749 | 23.89° C | 19% | 1016.4 hPa | 0 mm | - | 783 W/m² | - |
| 1777831189 | 23.89° C | 19% | 1016.6 hPa | 0 mm | - | 718 W/m² | - |
| 1777830652 | 23.89° C | 18% | 1016.6 hPa | 0 mm | - | 703 W/m² | - |
| 1777830099 | 23.33° C | 21% | 1017.1 hPa | 0 mm | - | 640 W/m² | - |
| 1777829604 | 22.78° C | 22% | 1016.9 hPa | 0 mm | - | 717 W/m² | - |
| 1777829104 | 22.78° C | 24% | 1017 hPa | 0 mm | - | 730 W/m² | - |
| 1777828529 | 22.22° C | 22% | 1017.4 hPa | 0 mm | - | 702 W/m² | - |
| 1777827979 | 22.22° C | 23% | 1017.5 hPa | 0 mm | - | 509 W/m² | - |
| 1777827444 | 21.67° C | 23% | 1017.5 hPa | 0 mm | - | 511 W/m² | - |
| 1777826949 | 21.67° C | 22% | 1017.5 hPa | 0 mm | - | 460 W/m² | - |
| 1777826449 | 21.11° C | 23% | 1017.6 hPa | 0 mm | - | 582 W/m² | - |
| 1777825949 | 21.11° C | 23% | 1017.6 hPa | 0 mm | - | 510 W/m² | - |
| 1777825413 | 20.56° C | 24% | 1017.6 hPa | 0 mm | - | 510 W/m² | - |
| 1777824923 | 20° C | 24% | 1017.9 hPa | 0 mm | - | 474 W/m² | - |
| 1777824419 | 19.44° C | 25% | 1017.8 hPa | 0 mm | - | 494 W/m² | - |
| 1777823844 | 18.89° C | 26% | 1018 hPa | 0 mm | - | 492 W/m² | - |
| 1777823269 | 18.33° C | 26% | 1017.7 hPa | 0 mm | - | 475 W/m² | - |
| 1777822719 | 17.22° C | 27% | 1018.1 hPa | 0 mm | - | 431 W/m² | - |
| 1777822194 | 16.11° C | 29% | 1018.6 hPa | 0 mm | - | 462 W/m² | - |
| 1777821626 | 15.56° C | 30% | 1018.4 hPa | 0 mm | - | 220 W/m² | - |
| 1777821074 | 15° C | 31% | 1018.5 hPa | 0 mm | - | 311 W/m² | - |
| 1777820532 | 14.44° C | 31% | 1018.5 hPa | 0 mm | - | 312 W/m² | - |
| 1777819953 | 13.89° C | 34% | 1018.6 hPa | 0 mm | - | 275 W/m² | - |
| 1777819372 | 13.33° C | 34% | 1018.7 hPa | 0 mm | - | 237 W/m² | - |
* Rain latest hour (hover to see other rain measurements)
** Current wind speed in m/s (hover to see current wind gust speed)